This is the latest recevied weather packets stored in our database for station/object NE8U. If no packets are shown the sender has not sent any weather packets the latest 10 day(s).
| Time | Temp. | Humidity | Pressure | Rain* | Wind** | Luminosity | Snow |
|---|---|---|---|---|---|---|---|
| 1777502112 | 28.33° C | 13% | 1014.2 hPa | 0 mm | - | 227 W/m² | - |
| 1777501810 | 28.33° C | 12% | 1014.5 hPa | 0 mm | - | 217 W/m² | - |
| 1777501506 | 28.89° C | 13% | 1014.5 hPa | 0 mm | - | 410 W/m² | - |
| 1777501203 | 28.33° C | 12% | 1014.6 hPa | 0 mm | - | 246 W/m² | - |
| 1777500901 | 28.33° C | 13% | 1014.6 hPa | 0 mm | - | 277 W/m² | - |
| 1777500598 | 27.78° C | 12% | 1015 hPa | 0 mm | - | 300 W/m² | - |
| 1777500294 | 28.33° C | 12% | 1014.8 hPa | 0 mm | - | 294 W/m² | - |
| 1777499991 | 28.89° C | 13% | 1014.8 hPa | 0 mm | - | 311 W/m² | - |
| 1777499688 | 28.89° C | 12% | 1014.5 hPa | 0 mm | - | 274 W/m² | - |
| 1777499384 | 28.33° C | 12% | 1014.6 hPa | 0 mm | - | 312 W/m² | - |
| 1777499083 | 28.89° C | 12% | 1015 hPa | 0 mm | - | 281 W/m² | - |
| 1777498779 | 29.44° C | 12% | 1015.3 hPa | 0 mm | - | 302 W/m² | - |
| 1777498475 | 28.89° C | 13% | 1015.1 hPa | 0 mm | - | 361 W/m² | - |
| 1777498172 | 28.33° C | 13% | 1015.3 hPa | 0 mm | - | 397 W/m² | - |
| 1777497869 | 28.89° C | 12% | 1015.3 hPa | 0 mm | - | 312 W/m² | - |
| 1777497566 | 28.89° C | 13% | 1015.3 hPa | 0 mm | - | 335 W/m² | - |
| 1777497262 | 28.89° C | 12% | 1015.5 hPa | 0 mm | - | 340 W/m² | - |
| 1777496959 | 28.33° C | 12% | 1015.7 hPa | 0 mm | - | 337 W/m² | - |
| 1777496656 | 28.33° C | 12% | 1015.5 hPa | 0 mm | - | 340 W/m² | - |
| 1777496352 | 28.89° C | 12% | 1015.7 hPa | 0 mm | - | 373 W/m² | - |
| 1777496049 | 29.44° C | 11% | 1015.7 hPa | 0 mm | - | 474 W/m² | - |
| 1777495744 | 29.44° C | 11% | 1015.9 hPa | 0 mm | - | 371 W/m² | - |
| 1777495441 | 28.89° C | 11% | 1015.8 hPa | 0 mm | - | 494 W/m² | - |
| 1777495137 | 28.33° C | 10% | 1015.9 hPa | 0 mm | - | 387 W/m² | - |
| 1777494834 | 28.89° C | 10% | 1015.8 hPa | 0 mm | - | 463 W/m² | - |
* Rain latest hour (hover to see other rain measurements)
** Current wind speed in m/s (hover to see current wind gust speed)